Wind_Speed
29 31 34 32 27 26 14 3 2 8 5 0 3 3 0 2 1 0 0 1 2 4 4 3 2 3 3 3 3 3 3 5 4 2 3 4 4 5 10 3 4 1 3 3
28 30 33 31 24 22 17 7 4 6 4 1 5 5 3 2 1 1 1 1 2 1 4 3 3 2 3 2 0 2 5 4 5 2 3 3 6 9 6 1 3 4 3 5
24 29 31 31 23 17 9 4 2 1 0 4 1 4 3 3 1 0 1 2 3 5 4 1 6 4 2 1 2 3 1 3 2 1 3 3 6 11 12 8 3 5 8 6
23 26 28 29 22 14 6 4 2 2 2 2 3 2 0 1 1 0 2 3 3 3 4 4 4 6 4 2 2 2 1 2 1 0 3 2 4 8 14 13 11 6 1 7
21 24 27 28 24 14 7 4 5 6 5 5 4 1 2 3 2 2 1 3 3 4 1 1 5 8 6 5 7 5 2 2 1 2 3 6 8 10 11 16 16 16 13 12
18 22 22 23 27 19 8 7 5 3 2 2 4 2 3 4 5 2 1 4 1 4 2 2 1 2 3 3 6 9 6 5 2 1 2 4 9 17 18 15 10 16 14 11
18 20 19 20 21 23 14 14 6 4 1 3 3 4 5 4 5 4 2 3 5 3 5 6 5 5 5 6 4 7 7 5 2 1 3 4 2 3 4 18 13 15 11 10
18 21 17 14 18 18 15 18 9 5 4 8 3 5 4 8 4 2 2 2 2 4 1 3 4 3 4 4 4 7 7 7 2 3 5 10 7 6 5 8 9 18 18 13
17 19 18 9 13 15 13 15 16 4 5 5 6 9 5 4 4 3 1 2 0 2 3 2 3 4 3 4 5 4 6 7 4 2 3 3 4 5 4 5 3 6 16 10
16 18 22 9 11 9 12 12 13 8 4 3 6 3 5 5 3 4 2 2 2 2 3 5 4 5 1 4 5 6 7 7 9 7 4 6 4 7 7 4 5 9 8 7
14 15 16 11 9 9 11 9 10 9 4 15 9 6 7 8 6 4 6 3 5 3 5 4 3 5 6 4 5 6 9 6 6 7 6 7 9 6 4 6 7 4 2 3
14 13 16 16 14 10 7 7 10 12 8 9 19 23 20 17 13 8 5 5 5 7 4 6 3 5 3 8 4 9 6 7 3 7 4 4 7 5 3 1 1 1 3 4
15 16 17 16 12 6 12 11 11 14 9 16 6 2 4 6 9 21 6 3 4 4 6 5 3 6 4 6 9 7 8 10 4 4 8 10 7 8 1 3 4 3 2 3
15 16 17 16 11 10 16 17 12 10 6 5 5 6 9 10 9 11 24 21 9 9 10 4 4 4 7 8 6 8 5 11 10 9 9 2 10 12 10 6 3 4 6 8
15 15 14 15 15 15 14 11 7 8 5 4 11 22 7 6 9 14 14 14 13 12 4 3 3 9 4 4 3 8 9 8 9 5 9 11 3 12 10 6 5 8 10 12
12 13 13 18 19 14 8 2 4 7 1 4 4 6 4 2 3 7 9 10 9 11 8 6 7 12 8 6 11 15 14 19 17 12 5 3 8 6 5 7 7 9 12 13
12 13 15 20 10 7 2 2 4 7 8 2 5 4 3 2 3 2 5 9 6 8 6 10 10 6 12 5 10 6 13 14 11 7 6 5 5 3 5 6 11 16 17 16
13 15 18 15 4 5 3 4 5 6 4 2 3 4 4 5 4 4 6 6 7 8 8 9 11 6 4 5 13 9 6 9 10 8 8 5 6 7 10 14 15 16 16 13
16 17 11 3 2 2 3 9 10 7 3 3 2 3 3 3 5 3 6 7 4 7 6 7 7 5 5 6 10 11 12 10 8 10 7 7 7 8 11 13 13 13 12 13
12 9 3 1 1 10 11 2 0 2 2 4 3 4 3 4 5 5 4 8 3 4 7 9 5 3 14 11 10 4 10 9 9 6 3 5 5 5 8 11 12 13 14 14
10 8 2 5 8 4 2 1 2 2 3 4 5 6 5 7 4 2 7 2 2 3 3 3 3 3 4 11 11 8 8 8 7 6 6 5 5 8 13 14 12 13 13 14
11 4 5 4 3 2 1 1 2 2 2 5 5 10 13 8 6 5 5 3 2 2 1 2 2 2 4 6 6 6 5 5 4 4 5 5 5 10 11 11 12 11 11 10
3 3 3 2 1 1 1 3 0 3 5 3 11 7 6 6 5 6 2 3 2 3 2 2 1 4 5 5 5 4 4 4 5 4 5 3 3 7 6 7 8 8 6 4
2 3 2 2 1 2 2 2 2 4 6 12 14 9 5 5 3 2 3 1 3 2 2 2 2 6 7 6 6 4 4 5 4 4 2 3 4 4 6 4 7 9 9 7
1 2 1 2 4 6 6 8 8 9 13 9 10 8 5 3 4 2 2 2 3 3 2 3 0 7 7 6 6 6 5 6 6 5 3 1 1 2 4 5 7 8 8 8
1 3 3 4 2 4 5 8 9 6 7 10 4 3 3 4 3 3 3 2 2 2 2 5 4 9 8 7 7 5 4 3 3 2 1 2 3 4 5 7 8 8 8 8
3 3 8 7 6 7 5 5 5 6 5 2 3 4 2 5 3 3 2 2 3 8 11 7 5 9 8 7 6 5 3 1 1 2 3 4 5 6 7 8 9 9 9 9
Wind_Direction
347 347 351 350 351 351 353 13 289 333 341 303 89 79 202 314 21 316 88 62 56 149 155 165 127 134 49 106 131 89 28 100 138 163 89 329 322 234 209 239 184 254 303 94
343 347 350 350 351 354 353 331 292 314 334 149 119 139 153 225 161 87 122 106 334 263 159 157 146 88 63 124 104 130 159 130 126 172 203 191 219 211 223 175 351 215 276 117
347 348 353 352 353 354 355 338 317 353 118 345 189 168 153 184 146 47 348 117 161 166 171 355 158 136 67 65 37 46 51 146 308 232 68 132 193 208 203 195 203 203 234 111
351 351 356 355 358 0 38 13 17 352 322 105 331 281 266 213 143 186 243 183 257 195 160 154 149 137 140 179 166 161 258 160 107 110 99 139 219 208 204 210 217 227 187 222
354 355 356 3 8 16 51 24 2 334 288 299 266 161 67 10 38 319 141 277 183 192 241 282 173 176 186 183 184 201 179 131 101 277 227 238 249 234 221 220 223 241 258 265
355 359 359 6 16 29 50 23 2 337 60 293 269 54 27 32 333 87 11 358 248 218 41 342 29 121 167 160 182 192 184 149 174 240 214 274 266 232 216 214 218 224 231 242
354 354 358 0 13 25 34 26 31 340 334 285 353 344 337 322 346 330 355 339 309 56 95 102 118 124 126 141 156 187 186 162 152 272 242 237 58 74 207 220 221 219 234 235
352 358 354 3 10 13 28 31 35 7 305 343 271 326 322 304 274 263 306 37 22 156 243 175 156 166 180 169 196 199 219 186 172 246 228 295 236 191 180 180 233 223 223 238
358 1 356 345 351 353 15 23 23 21 321 57 340 326 319 310 309 233 149 16 354 213 256 241 244 214 204 175 172 217 209 238 237 216 263 258 48 141 173 175 211 174 202 214
354 353 358 346 356 344 1 5 9 22 316 323 346 330 341 330 289 283 305 330 215 222 236 243 245 246 135 216 206 187 194 207 222 227 264 285 144 137 152 224 99 127 165 188
345 345 353 1 354 351 347 339 358 359 287 287 271 267 285 301 278 285 17 253 206 201 236 231 220 260 208 239 212 182 189 197 209 223 229 259 133 134 226 86 115 109 130 171
340 340 338 332 342 319 331 325 330 334 299 263 278 280 264 255 257 298 266 316 317 348 252 229 215 225 239 244 233 198 206 206 228 209 226 124 191 271 113 20 219 202 163 160
333 330 326 331 335 313 328 311 318 322 303 306 286 320 280 286 260 222 236 254 320 8 351 314 301 246 222 220 242 199 234 219 223 215 249 228 198 197 150 113 113 118 168 245
321 323 327 337 331 311 318 308 297 295 290 289 297 309 307 297 268 236 220 246 268 331 334 295 251 234 215 251 267 230 209 169 213 237 261 271 232 225 223 193 217 275 277 278
315 325 327 331 320 322 325 318 288 272 251 301 295 302 278 320 223 228 238 243 254 253 280 253 265 264 237 233 265 237 196 207 209 231 229 223 294 196 186 209 257 272 285 288
318 324 324 329 319 321 335 352 31 55 30 308 301 309 302 281 253 243 242 228 235 223 217 239 253 258 308 232 235 235 226 227 227 252 195 170 139 169 227 259 258 272 287 289
326 325 327 321 316 322 318 313 303 308 322 277 293 289 291 269 238 256 224 216 220 222 243 237 252 266 347 270 233 196 224 218 209 191 177 206 205 186 237 259 278 286 286 274
323 318 321 322 313 315 320 330 314 318 314 284 289 283 283 217 219 208 181 194 215 227 239 249 241 248 205 270 234 231 176 182 186 185 198 205 216 261 279 287 291 289 283 271
322 323 334 30 27 10 333 318 308 308 259 300 257 298 328 262 245 208 192 198 220 236 225 231 224 203 210 279 301 201 190 189 189 194 214 246 269 278 292 294 293 284 279 267
333 344 31 32 320 308 306 12 219 213 246 232 260 265 270 276 233 213 228 201 230 219 216 203 214 260 232 254 291 209 173 183 175 163 224 248 270 302 311 304 292 283 278 272
11 352 339 313 331 19 8 291 249 187 236 214 251 258 282 288 241 256 215 228 235 252 163 226 194 233 167 204 205 200 184 185 196 208 238 249 264 310 321 313 306 297 290 278
338 321 317 348 9 323 291 342 303 251 327 316 305 312 295 281 251 240 205 251 228 287 84 251 245 87 120 154 175 192 192 201 217 222 228 228 296 320 321 316 312 308 296 278
37 32 21 341 312 303 53 351 266 315 323 322 321 323 291 293 265 273 277 270 299 296 254 274 27 138 158 174 186 192 198 191 195 203 203 227 266 319 323 346 338 328 331 318
43 41 347 281 241 244 212 255 281 290 286 313 318 304 282 296 279 283 271 323 290 282 281 275 31 162 158 160 167 149 148 151 150 157 180 231 258 291 291 346 326 333 342 334
30 115 256 234 301 284 272 272 281 291 303 313 307 279 249 266 276 245 289 246 261 250 283 10 350 169 160 152 147 139 123 115 110 112 112 108 3 305 357 346 325 313 304 300
219 231 231 206 286 272 284 279 278 299 309 316 272 274 276 262 290 268 248 272 266 351 350 329 189 174 165 168 166 155 137 121 117 94 43 1 345 360 359 346 342 337 330 320
210 251 242 253 255 253 272 291 301 298 320 311 313 280 314 304 262 260 240 270 348 328 326 315 206 194 178 175 173 170 154 123 43 9 345 347 350 351 350 343 343 340 337 334
Height
1495 1489 1482 1475 1469 1464 1459 1458 1457 1455 1453 1453 1450 1453 1456 1456 1453 1453 1451 1450 1448 1445 1446 1445 1445 1446 1447 1453 1453 1453 1458 1461 1472 1472 1475 1475 1471 1468 1467 1469 1477 1473 1470 1461
1494 1488 1481 1475 1469 1464 1461 1460 1458 1455 1454 1450 1448 1453 1453 1454 1451 1451 1449 1449 1449 1449 1447 1450 1449 1450 1456 1457 1455 1455 1458 1465 1477 1479 1476 1475 1474 1471 1472 1475 1477 1477 1465 1459
1493 1488 1482 1476 1470 1465 1462 1462 1460 1456 1455 1455 1448 1449 1449 1450 1452 1450 1450 1449 1450 1449 1448 1447 1451 1453 1457 1458 1457 1459 1459 1460 1466 1458 1462 1458 1469 1466 1470 1474 1476 1465 1462 1458
1492 1487 1481 1475 1470 1465 1464 1464 1465 1465 1455 1454 1454 1454 1452 1449 1448 1451 1451 1449 1448 1446 1448 1449 1451 1454 1458 1460 1461 1460 1459 1469 1471 1463 1466 1468 1466 1464 1467 1474 1469 1465 1454 1457
1494 1489 1484 1478 1472 1466 1467 1468 1468 1466 1460 1460 1456 1455 1451 1451 1451 1452 1449 1449 1448 1448 1446 1446 1449 1452 1454 1456 1460 1460 1462 1470 1470 1471 1467 1468 1468 1464 1462 1466 1467 1463 1461 1461
1493 1490 1485 1480 1475 1470 1469 1471 1471 1470 1461 1458 1456 1453 1455 1455 1455 1454 1454 1451 1449 1449 1450 1451 1452 1452 1452 1453 1457 1459 1462 1469 1472 1463 1466 1466 1463 1453 1454 1456 1456 1458 1461 1456
1493 1489 1486 1483 1480 1477 1475 1473 1472 1472 1458 1459 1458 1461 1461 1458 1458 1456 1455 1454 1451 1456 1455 1455 1454 1454 1454 1455 1456 1457 1460 1466 1469 1467 1468 1463 1444 1444 1443 1448 1451 1454 1453 1453
1494 1489 1486 1485 1483 1481 1478 1475 1474 1475 1468 1465 1462 1463 1463 1461 1458 1457 1457 1457 1458 1457 1457 1453 1454 1455 1455 1456 1457 1458 1457 1459 1464 1464 1455 1441 1436 1443 1447 1447 1443 1446 1450 1453
1495 1492 1487 1485 1483 1482 1481 1478 1476 1476 1476 1467 1470 1466 1464 1462 1457 1456 1457 1458 1457 1458 1455 1451 1452 1448 1444 1453 1456 1458 1458 1457 1460 1461 1458 1444 1437 1440 1443 1444 1438 1439 1446 1450
1495 1492 1489 1485 1484 1483 1481 1479 1477 1477 1477 1472 1471 1468 1467 1467 1464 1461 1459 1459 1459 1459 1453 1452 1449 1445 1446 1448 1452 1457 1458 1457 1459 1459 1456 1442 1433 1440 1443 1443 1444 1442 1446 1449
1494 1492 1491 1486 1485 1483 1481 1481 1478 1478 1476 1470 1469 1470 1470 1469 1468 1463 1463 1461 1458 1459 1456 1450 1446 1444 1441 1442 1442 1446 1451 1455 1454 1453 1455 1453 1437 1442 1441 1440 1442 1444 1446 1447
1493 1491 1489 1487 1484 1483 1480 1479 1477 1475 1475 1470 1466 1465 1466 1468 1469 1470 1466 1463 1460 1456 1450 1445 1443 1442 1440 1438 1438 1441 1445 1441 1440 1441 1438 1435 1437 1437 1439 1441 1442 1443 1445 1446
1493 1491 1488 1486 1482 1481 1480 1476 1476 1473 1470 1463 1460 1459 1460 1460 1460 1464 1468 1463 1462 1460 1461 1457 1448 1443 1437 1436 1435 1437 1438 1438 1440 1439 1431 1434 1437 1439 1440 1441 1442 1443 1444 1445
1491 1488 1486 1485 1482 1480 1478 1475 1473 1473 1472 1467 1460 1457 1457 1457 1457 1457 1459 1460 1463 1464 1462 1459 1450 1444 1437 1433 1429 1428 1429 1435 1436 1433 1432 1435 1435 1435 1437 1439 1440 1441 1442 1443
1487 1485 1484 1483 1480 1478 1475 1472 1471 1471 1474 1468 1460 1455 1453 1453 1453 1456 1458 1459 1461 1463 1464 1459 1450 1441 1440 1435 1433 1426 1428 1427 1429 1426 1425 1427 1428 1432 1435 1437 1438 1438 1439 1439
1486 1484 1482 1480 1478 1476 1474 1472 1472 1471 1471 1470 1462 1456 1453 1453 1454 1454 1455 1457 1459 1460 1458 1456 1450 1444 1443 1425 1418 1418 1419 1422 1423 1424 1426 1428 1430 1433 1434 1435 1436 1435 1435 1435
1483 1482 1479 1477 1475 1475 1475 1475 1473 1471 1470 1470 1464 1457 1454 1453 1453 1453 1454 1455 1456 1457 1456 1450 1448 1444 1442 1425 1412 1412 1415 1419 1422 1424 1426 1428 1429 1430 1431 1432 1432 1432 1431 1431
1481 1479 1476 1473 1473 1473 1474 1473 1471 1471 1471 1470 1468 1459 1455 1453 1452 1451 1451 1453 1454 1451 1449 1444 1440 1440 1444 1424 1413 1412 1415 1418 1421 1422 1423 1426 1426 1428 1429 1428 1428 1427 1427 1427
1478 1475 1471 1472 1473 1474 1474 1472 1471 1470 1474 1470 1468 1461 1453 1452 1449 1448 1449 1450 1448 1445 1441 1437 1434 1430 1425 1418 1413 1411 1414 1416 1418 1420 1422 1424 1425 1425 1426 1425 1425 1424 1424 1423
1475 1472 1473 1473 1473 1473 1473 1470 1471 1470 1470 1470 1467 1462 1456 1453 1446 1444 1445 1442 1437 1433 1426 1425 1424 1414 1413 1414 1416 1414 1414 1415 1416 1418 1421 1422 1423 1423 1423 1422 1422 1421 1420 1419
1475 1474 1474 1473 1473 1472 1472 1471 1470 1469 1468 1467 1463 1459 1454 1449 1445 1440 1438 1431 1428 1418 1414 1415 1412 1407 1406 1408 1413 1414 1414 1414 1416 1418 1419 1420 1421 1420 1420 1419 1418 1417 1415 1414
1474 1474 1474 1473 1473 1474 1474 1471 1470 1468 1464 1464 1461 1458 1453 1446 1441 1437 1431 1426 1424 1411 1418 1414 1404 1405 1408 1409 1411 1413 1413 1414 1415 1416 1418 1419 1419 1419 1418 1416 1415 1413 1412 1411
1472 1473 1475 1476 1476 1472 1469 1471 1467 1467 1465 1464 1462 1458 1453 1445 1438 1432 1428 1422 1416 1418 1412 1403 1401 1408 1409 1410 1411 1411 1412 1413 1413 1415 1416 1417 1418 1418 1417 1415 1413 1412 1411 1410
1474 1475 1475 1477 1473 1470 1470 1469 1469 1468 1465 1463 1461 1458 1454 1445 1439 1431 1426 1424 1422 1414 1411 1403 1405 1408 1410 1411 1411 1413 1412 1412 1413 1414 1414 1416 1416 1416 1416 1414 1413 1411 1410 1409
1474 1476 1474 1475 1474 1472 1470 1469 1468 1466 1463 1462 1460 1456 1453 1445 1437 1431 1427 1422 1417 1411 1407 1407 1409 1409 1409 1411 1412 1413 1413 1413 1413 1414 1415 1416 1416 1415 1414 1413 1412 1411 1410 1409
1473 1474 1474 1472 1473 1471 1472 1469 1466 1464 1463 1461 1459 1455 1448 1439 1434 1428 1421 1419 1414 1411 1413 1412 1411 1411 1411 1412 1413 1414 1414 1415 1415 1415 1416 1416 1415 1415 1413 1412 1411 1410 1409 1407
1470 1469 1469 1470 1467 1467 1468 1469 1467 1465 1464 1461 1459 1454 1442 1442 1433 1426 1420 1416 1417 1417 1415 1412 1411 1412 1413 1413 1414 1414 1415 1416 1416 1416 1416 1415 1415 1414 1413 1412 1410 1409 1407 1406